Location: �chemir�
(47.5500°N, 0.1667°W)
Time: 08:47:57
(UTC+02:00)

ISS - Pass Details

Date: 15 May 2021
Orbit: 419 x 422 km, 51.6° (Epoch: 24 June)

Event Time Altitude Azimuth Distance (km) Brightness Sun altitude
Rises 03:32:07 0° 292° (WNW) 2,440 0.1 -20.2°
Reaches altitude 10° 03:34:16 10° 296° (WNW) 1,572 -0.8 -20.1°
Maximum altitude 03:37:46 60° 17° (NNE) 516 -3.1 -19.8°
Drops below altitude 10° 03:41:18 10° 99° (E) 1,576 -0.6 -19.6°
Sets 03:43:21 0° 103° (ESE) 2,409 0.3 -19.4°
